Tiempo atmosférico en la estación meteorológica de Capdepera, Illes Balears (57 m.)



Fecha
DESCASC
Temp. máxima en grados centígrados (hora)
DESCASC
Temp. mínima en grados centígrados (hora)
DESCASC
Temp. media en grados centígrados
DESCASC
Racha de viento máxima en m/sg (hora)
DESCASC
Velocidad máxima media en intervalos de 10 minutos(hora)
DESCASC
Precipitaciones diarias en mm
DESCASC
Precipitaciones de 00:00 a 06:00 en mm
DESCASC
Precipitaciones de 06:00 a 12:00 en mm
DESCASC
Precipitaciones de 12:00 a 18:00 en mm
DESCASC
Precipitaciones de 18:00 a 24:00 en mm
DESCASC
17-01-2021 21.3 (13:50) 9.4 (00:00) 15.3 15.56 (22:10) 12.78 (23:10) 0 0 0 0 0
21-01-2021 20.5 (13:00) 12.7 (00:00) 16.6 11.94 (16:00) 5 (15:40) 0 0 0 0 0
24-01-2021 18.8 (10:20) 11.8 (00:00) 15.3 18.33 (13:10) 12.22 (13:10) 0 0 0 0 0
29-12-2020 18.4 (12:20) 9.8 (00:00) 14.1 11.11 (22:20) 6.11 (13:30) 0.3 0 0 0.3 0
22-01-2021 18.4 (14:50) 12.6 (00:00) 15.5 21.39 (12:00) 8.33 (12:00) 4.3 0 4.3 0 0
23-01-2021 18.3 (13:10) 11.2 (00:00) 14.7 20 (00:10) 8.89 (00:10) 0 0 0 0 0
31-12-2020 17.6 (13:10) 9.3 (00:00) 13.5 7.5 (14:30) 3.33 (03:20) 0 0 0 0 0
20-01-2021 16.9 (13:20) 12.3 (00:00) 14.6 11.11 (14:00) 7.22 (12:40) 0 0 0 0 0
19-01-2021 16.8 (11:50) 9.6 (00:00) 13.2 11.94 (13:50) 7.22 (15:00) 0 0 0 0 0
25-01-2021 16.6 (14:40) 11.4 (00:00) 14 17.5 (22:20) 14.17 (22:20) 1.2 0 0 0.1 1.1
15-01-2021 16.3 (14:10) 8.9 (00:00) 12.6 11.94 (23:59) 10 (23:59) 0 0 0 0 0
14-01-2021 16.2 (15:00) 9.1 (07:40) 12.7 8.89 (12:10) 6.11 (12:10) 0 0 0 0 0
13-01-2021 16.2 (12:00) 7.7 (00:00) 12 8.33 (03:00) 4.17 (03:00) 0 0 0 0 0
28-12-2020 16.2 (14:30) 11 (00:00) 13.6 17.78 (02:20) 7.22 (05:10) 0.4 0 0.3 0.1 0
30-12-2020 15.6 (12:50) 8.9 (00:00) 12.3 14.17 (11:00) 6.11 (12:10) 0 0 0 0 0
12-01-2021 15.2 (12:40) 6.5 (00:00) 10.8 13.33 (14:30) 8.89 (14:30) 0 0 0 0 0
10-01-2021 15.2 (13:30) 8.6 (06:50) 11.9 21.94 (21:10) 17.78 (21:10) 11 0 0 0 11
09-01-2021 15.2 (16:00) 9.1 (00:00) 12.2 15.56 (09:20) 12.78 (09:20) 2.9 1.6 1.1 0.1 0.1
04-01-2021 14.8 (11:20) 6.8 (00:00) 10.8 14.17 (16:20) 6.94 (14:30) 0.8 0 0 0.8 0
16-01-2021 14.7 (14:10) 9.6 (00:00) 12.2 20.83 (08:10) 16.94 (08:10) 0.2 0 0.2 0 0
18-01-2021 13.6 (15:00) 9.8 (00:00) 11.7 11.67 (00:10) 9.17 (06:50) 0 0 0 0 0
06-01-2021 13.5 (10:30) 6.5 (00:00) 10 8.61 (12:30) 6.11 (12:30) 0 0 0 0 0
01-01-2021 13.5 (15:20) 7.8 (00:00) 10.7 24.17 (23:00) 18.61 (20:10) 9.9 0 0.1 3.6 6.2
26-01-2021 13.5 (14:40) 10.3 (00:00) 11.9 15.28 (01:50) 12.5 (00:10) 0 0 0 0 0
02-01-2021 13.3 (12:20) 6.2 (00:00) 9.8 11.39 (01:10) 7.78 (01:10) 0.7 0.4 0.1 0.2 0
05-01-2021 12.1 (11:40) 5.2 (00:00) 8.7 10.83 (07:00) 6.11 (13:40) 1.5 0 1.5 0 0
07-01-2021 10.7 (02:50) 7.9 (00:00) 9.3 18.89 (21:20) 14.17 (21:20) 2.4 0.1 1 0.5 0.8
11-01-2021 10.5 (15:00) 8.1 (00:00) 9.3 20.56 (00:30) 16.94 (00:30) 1.7 0.9 0.1 0 0.7
08-01-2021 10.5 (13:30) 6.9 (00:00) 8.7 18.61 (04:40) 14.17 (04:50) 8.3 4.1 1 1.5 1.7
03-01-2021 10.1 (14:40) 4.8 (00:00) 7.5 11.67 (01:40) 8.89 (09:00) 14.5 0.3 11.1 3.1 0

Gráficas

Temp. máximas Temp. mínimas Temp. medias Precipitaciones Rachas de viento máximas Velocidades máximas media en intervalos de 10 minutos

Datos horarios

Fecha y hora oficial Temperatura (ºC) Velocidad del viento (km/h) Dirección del viento Racha (km/h) Dirección de racha Precipitación (mm) Presión (hPa) Tendencia (hPa) Humedad (%)
2021-01-26 23:00:00 11.2 4 Sur 18 Oeste 0 -- -- 86
2021-01-26 22:00:00 10.9 5 Oeste 14 Oeste 0 -- -- 83
2021-01-26 21:00:00 10.3 3 Sudoeste 13 Oeste 0 -- -- 83
2021-01-26 20:00:00 10.6 4 Sudoeste 16 Sudoeste 0 -- -- 79
2021-01-26 19:00:00 10.9 4 Oeste 15 Oeste 0 -- -- 78
2021-01-26 18:00:00 11.5 4 Sudoeste 19 Sudoeste 0 -- -- 76
2021-01-26 17:00:00 11.8 8 Sudoeste 21 Sur 0 -- -- 67
2021-01-26 16:00:00 11.8 12 Sur 22 Sur 0 -- -- 68
2021-01-26 15:00:00 13 9 Sudeste 12 Sur 0 -- -- 64
2021-01-26 14:00:00 12.2 3 Sudeste 16 Noroeste 0 -- -- 65
2021-01-26 13:00:00 11.6 10 Norte 24 Norte 0 -- -- 69
2021-01-26 12:00:00 11 18 Norte 31 Norte 0 -- -- 69
2021-01-26 11:00:00 11.1 22 Norte 37 Nordeste 0 -- -- 68
2021-01-26 10:00:00 10.9 25 Norte 36 Norte 0 -- -- 68
2021-01-26 09:00:00 10.8 27 Norte 42 Norte 0 -- -- 74
2021-01-26 08:00:00 10.5 26 Norte 37 Norte 0 -- -- 67
2021-01-26 07:00:00 10.8 27 Norte 37 Norte 0 -- -- 65
2021-01-26 06:00:00 10.8 31 Norte 41 Norte 0 -- -- 61
2021-01-26 05:00:00 11 31 Norte 46 Norte 0 -- -- 61
2021-01-26 04:00:00 11.2 32 Norte 48 Norte 0 -- -- 60
2021-01-26 03:00:00 11.6 40 Norte 49 Norte 0 -- -- 59
2021-01-26 02:00:00 11.7 39 Norte 55 Norte 0 -- -- 60
2021-01-26 01:00:00 11.9 44 Norte 55 Nordeste 0 -- -- 67
2021-01-26 00:00:00 12.1 44 Norte 62 Nordeste 0 -- -- 72
2021-01-25 23:00:00 12 42 Nordeste 63 Nordeste 0 -- -- 74
2021-01-25 22:00:00 11.8 49 Nordeste 59 Nordeste 0.2 -- -- 89
2021-01-25 21:00:00 12.3 34 Norte 50 Norte 0.8 -- -- 97
2021-01-25 20:00:00 14.4 19 Norte 31 Norte 0.1 -- -- 89
2021-01-25 19:00:00 14.5 7 Oeste 19 Noroeste 0 -- -- 86
2021-01-25 18:00:00 14.7 8 Oeste 32 Oeste 0 -- -- 84
2021-01-25 17:00:00 15 13 Oeste 33 Oeste 0.1 -- -- 80
2021-01-25 16:00:00 15.4 5 Sudoeste 36 Oeste 0 -- -- 76
2021-01-25 15:00:00 16.5 12 Oeste 28 Oeste 0 -- -- 65
2021-01-25 14:00:00 16.1 6 Oeste 33 Noroeste 0 -- -- 66
2021-01-25 13:00:00 15.8 9 Oeste 28 Oeste 0 -- -- 69
2021-01-25 12:00:00 14.2 6 Oeste 16 Sudoeste 0 -- -- 73
2021-01-25 11:00:00 14.5 6 Sudoeste 20 Oeste 0 -- -- 61
2021-01-25 10:00:00 14 7 Oeste 21 Oeste 0 -- -- 60
2021-01-25 09:00:00 13 10 Sudoeste 25 Oeste 0 -- -- 62
2021-01-25 08:00:00 12.8 12 Oeste 26 Oeste 0 -- -- 61
2021-01-25 07:00:00 13.4 10 Oeste 21 Oeste 0 -- -- 55
2021-01-25 06:00:00 14 10 Oeste 19 Oeste 0 -- -- 51
2021-01-25 05:00:00 14.4 11 Oeste 23 Oeste 0 -- -- 48
2021-01-25 04:00:00 13.5 16 Oeste 20 Oeste 0 -- -- 71
2021-01-25 03:00:00 13.6 9 Sudoeste 25 Oeste 0 -- -- 78
2021-01-25 02:00:00 13.6 9 Sudoeste 25 Oeste 0 -- -- 80
2021-01-25 01:00:00 13.2 6 Sudoeste 22 Sur 0 -- -- 75
2021-01-25 00:00:00 12.7 8 Sudoeste 24 Oeste 0 -- -- 62
2021-01-24 23:00:00 12.6 7 Oeste 18 Sudoeste 0 -- -- 59
2021-01-24 22:00:00 12.2 5 Sudoeste 13 Sudoeste 0 -- -- 57
2021-01-24 21:00:00 12 3 Sudoeste 17 Sur 0 -- -- 74
2021-01-24 20:00:00 12.6 3 Sudoeste 23 Sur 0 -- -- 61
2021-01-24 19:00:00 12.8 4 Sudoeste 21 Sur 0 -- -- 76
2021-01-24 18:00:00 13.1 6 Sudoeste 17 Norte 0 -- -- 59
2021-01-24 17:00:00 13.2 7 Noroeste 24 Noroeste 0 -- -- 72
2021-01-24 16:00:00 13.2 10 Norte 23 Norte 0 -- -- 73
2021-01-24 15:00:00 14.7 20 Norte 27 Norte 0 -- -- 68
2021-01-24 14:00:00 15.3 25 Norte 66 Noroeste 0 -- -- 66
2021-01-24 13:00:00 16 36 Norte 63 Norte 0 -- -- 56
2021-01-24 12:00:00 16.4 30 Norte 57 Noroeste 0 -- -- 53
2021-01-24 11:00:00 17 37 Norte 64 Noroeste 0 -- -- 48
2021-01-24 10:00:00 18.3 14 Norte 58 Oeste 0 -- -- 43
2021-01-24 09:00:00 17.7 12 Noroeste 54 Oeste 0 -- -- 40
2021-01-24 08:00:00 16.9 18 Noroeste 46 Noroeste 0 -- -- 43
2021-01-24 07:00:00 16.1 14 Sudoeste 45 Oeste 0 -- -- 70
2021-01-24 06:00:00 16.4 17 Sudoeste 52 Oeste 0 -- -- 68
2021-01-24 05:00:00 16.8 23 Oeste 59 Sudoeste 0 -- -- 62
2021-01-24 04:00:00 16.4 18 Sudoeste 47 Oeste 0 -- -- 60
2021-01-24 03:00:00 15.8 18 Sudoeste 50 Sudoeste 0 -- -- 62
2021-01-24 02:00:00 15.2 21 Sudoeste 50 Sur 0 -- -- 67
2021-01-24 01:00:00 15 18 Sudoeste 48 Sudoeste 0 -- -- 64
2021-01-24 00:00:00 14.7 16 Oeste 51 Oeste 0 -- -- 63
2021-01-23 23:00:00 14.3 18 Sudoeste 50 Sudoeste 0 -- -- 59
2021-01-23 22:00:00 14.3 15 Sudoeste 49 Sudoeste 0 -- -- 57
2021-01-23 21:00:00 13.8 11 Sudoeste 44 Sudoeste 0 -- -- 60
2021-01-23 20:00:00 13.3 11 Sudoeste 34 Noroeste 0 -- -- 64
2021-01-23 19:00:00 12.9 12 Oeste 32 Sudoeste 0 -- -- 60
2021-01-23 18:00:00 13.2 11 Sudoeste 34 Oeste 0 -- -- 60
2021-01-23 17:00:00 14.6 14 Sudoeste 31 Sudoeste 0 -- -- 53
2021-01-23 16:00:00 14.7 14 Sudoeste 40 Oeste 0 -- -- 52
2021-01-23 15:00:00 16.2 13 Sudoeste 31 Oeste 0 -- -- 50
2021-01-23 14:00:00 17.6 14 Oeste 42 Oeste 0 -- -- 41
2021-01-23 13:00:00 17.9 13 Oeste 35 Oeste 0 -- -- 42
2021-01-23 12:00:00 17.3 8 Sudoeste 27 Sur 0 -- -- 46
2021-01-23 11:00:00 16.6 9 Oeste 28 Oeste 0 -- -- 48
2021-01-23 10:00:00 15.5 10 Oeste 27 Oeste 0 -- -- 48
2021-01-23 09:00:00 12.8 10 Oeste 24 Sudoeste 0 -- -- 59
2021-01-23 08:00:00 11.3 6 Sudoeste 25 Sudoeste 0 -- -- 70
2021-01-23 07:00:00 11.6 8 Sudoeste 26 Oeste 0 -- -- 67
2021-01-23 06:00:00 11.9 7 Sudoeste 30 Oeste 0 -- -- 63
2021-01-23 05:00:00 12.5 14 Oeste 29 Oeste 0 -- -- 45
2021-01-23 04:00:00 12.9 9 Oeste 47 Noroeste 0 -- -- 45
2021-01-23 03:00:00 13.3 13 Oeste 53 Noroeste 0 -- -- 43
2021-01-23 02:00:00 13.7 17 Noroeste 57 Noroeste 0 -- -- 42
2021-01-23 01:00:00 13.8 24 Norte 72 Noroeste 0 -- -- 44
2021-01-23 00:00:00 14.3 27 Noroeste 66 Noroeste 0 -- -- 36
2021-01-22 23:00:00 13.9 18 Oeste 61 Oeste 0 -- -- 45
2021-01-22 22:00:00 13.6 9 Sudoeste 59 Noroeste 0 -- -- 55
2021-01-22 21:00:00 14.8 18 Noroeste 57 Oeste 0 -- -- 42
2021-01-22 20:00:00 14.3 21 Oeste 49 Oeste 0 -- -- 51
2021-01-22 19:00:00 14.3 14 Oeste 54 Oeste 0 -- -- 57
2021-01-22 18:00:00 14.7 12 Oeste 37 Sudoeste 0 -- -- 55
2021-01-22 17:00:00 15.9 18 Oeste 46 Oeste 0 -- -- 49
2021-01-22 16:00:00 17 13 Sudoeste 57 Oeste 0 -- -- 44
2021-01-22 15:00:00 18.1 18 Oeste 51 Oeste 0 -- -- 44
2021-01-22 14:00:00 18.1 15 Sudoeste 57 Oeste 0 -- -- 47
2021-01-22 13:00:00 16.1 15 Sudoeste 53 Oeste 0 -- -- 66
2021-01-22 12:00:00 13 30 Oeste 77 Noroeste 4.1 -- -- 80
2021-01-22 11:00:00 16 16 Sudoeste 55 Oeste 0.2 -- -- 86
2021-01-22 10:00:00 16.6 12 Sudoeste 44 Sudoeste 0 -- -- 75
2021-01-22 09:00:00 15.4 14 Oeste 42 Sudoeste 0 -- -- 78
2021-01-22 08:00:00 15.3 13 Sudoeste 50 Oeste 0 -- -- 80
2021-01-22 07:00:00 15 14 Sudoeste 47 Sudoeste 0 -- -- 86
2021-01-22 06:00:00 15.1 17 Sudoeste 49 Sudoeste 0 -- -- 81
2021-01-22 05:00:00 15 11 Sudoeste 36 Sudoeste 0 -- -- 80
2021-01-22 04:00:00 15.4 9 Sudoeste 44 Sudoeste 0 -- -- 66
2021-01-22 03:00:00 15.9 15 Sudoeste 51 Sudoeste 0 -- -- 65
2021-01-22 02:00:00 15.4 17 Sudoeste 41 Sudoeste 0 -- -- 71
2021-01-22 01:00:00 15.8 21 Oeste 53 Oeste 0 -- -- 63
2021-01-22 00:00:00 15.6 15 Sudoeste 37 Sudoeste 0 -- -- 64
2021-01-21 23:00:00 15.3 14 Sudoeste 35 Sudoeste 0 -- -- 69
2021-01-21 22:00:00 15.4 13 Sudoeste 32 Oeste 0 -- -- 67
2021-01-21 21:00:00 14.6 4 Noroeste 25 Oeste 0 -- -- 76
2021-01-21 20:00:00 14.7 13 Oeste 32 Sudoeste 0 -- -- 78
2021-01-21 19:00:00 14.9 8 Sudoeste 30 Oeste 0 -- -- 75
2021-01-21 18:00:00 15.4 10 Sudoeste 35 Oeste 0 -- -- 65
2021-01-21 17:00:00 16 14 Sudoeste 33 Sudoeste 0 -- -- 63
2021-01-21 16:00:00 17.1 15 Sudoeste 43 Sudoeste 0 -- -- 59
2021-01-21 15:00:00 17.7 11 Sudoeste 31 Sudoeste 0 -- -- 59
2021-01-21 14:00:00 19.8 8 Sudoeste 26 Oeste 0 -- -- 53
2021-01-21 13:00:00 20.3 4 Sudoeste 21 Sudoeste 0 -- -- 53
2021-01-21 12:00:00 19.4 4 Sudoeste 26 Sudoeste 0 -- -- 56
2021-01-21 11:00:00 17.8 10 Sudoeste 26 Oeste 0 -- -- 64
2021-01-21 10:00:00 16 15 Sudoeste 31 Sudoeste 0 -- -- 71
2021-01-21 09:00:00 14.1 7 Oeste 18 Noroeste 0 -- -- 81
2021-01-21 08:00:00 12.7 0 Calma 24 Oeste 0 -- -- 91
2021-01-21 07:00:00 13.1 9 Sudoeste 22 Sudoeste 0 -- -- 93
2021-01-21 06:00:00 13.2 9 Sudoeste 24 Oeste 0 -- -- 94
2021-01-21 05:00:00 13.4 8 Oeste 22 Oeste 0 -- -- 93
2021-01-21 04:00:00 13.5 8 Sudoeste 22 Noroeste 0 -- -- 92
2021-01-21 03:00:00 13.4 8 Sudoeste 29 Noroeste 0 -- -- 92
2021-01-21 02:00:00 13.5 8 Sudoeste 28 Sudoeste 0 -- -- 91
2021-01-21 01:00:00 13.6 12 Sudoeste 28 Sudoeste 0 -- -- 89
2021-01-21 00:00:00 13.6 6 Oeste 22 Sur 0 -- -- 88
2021-01-20 23:00:00 13.5 6 Sudoeste 18 Sudoeste 0 -- -- 88
2021-01-20 22:00:00 13.5 6 Sudoeste 33 Sudoeste 0 -- -- 85
2021-01-20 21:00:00 13.3 5 Sudoeste 23 Sudoeste 0 -- -- 86
2021-01-20 20:00:00 13.2 5 Sudoeste 22 Sudoeste 0 -- -- 85
2021-01-20 19:00:00 13.3 6 Sudoeste 21 Sudoeste 0 -- -- 83
2021-01-20 18:00:00 13.5 8 Sudoeste 24 Sudoeste 0 -- -- 81
2021-01-20 17:00:00 14.2 8 Sudoeste 28 Sudoeste 0 -- -- 76
2021-01-20 16:00:00 15.2 9 Sudoeste 30 Sudoeste 0 -- -- 71
2021-01-20 15:00:00 16.2 10 Sudoeste 37 Sur 0 -- -- 66
2021-01-20 14:00:00 15.4 24 Sur 40 Sur 0 -- -- 85
2021-01-20 13:00:00 16.4 17 Sudoeste 36 Sur 0 -- -- 73
2021-01-20 12:00:00 15.3 25 Sur 38 Sur 0 -- -- 84
2021-01-20 11:00:00 15.5 20 Sur 35 Sur 0 -- -- 81
2021-01-20 10:00:00 14.9 17 Sur 27 Sur 0 -- -- 81
2021-01-20 09:00:00 14.1 10 Sudoeste 27 Sur 0 -- -- 86
2021-01-20 08:00:00 13 11 Sudoeste 31 Sur 0 -- -- 90
2021-01-20 07:00:00 13.3 13 Sur 33 Sur 0 -- -- 88
2021-01-20 06:00:00 13.2 18 Sur 32 Sur 0 -- -- 87
2021-01-20 05:00:00 13 15 Sur 29 Sur 0 -- -- 87
2021-01-20 04:00:00 12.5 9 Sudoeste 22 Sur 0 -- -- 90
2021-01-20 03:00:00 12.5 10 Sudoeste 23 Sudoeste 0 -- -- 89
2021-01-20 02:00:00 12.7 7 Sudoeste 33 Sur 0 -- -- 88
2021-01-20 01:00:00 13.2 12 Sudoeste 35 Sur 0 -- -- 84
2021-01-20 00:00:00 13.3 19 Sur 39 Sur 0 -- -- 81
2021-01-19 23:00:00 13.2 14 Sudoeste 30 Sudoeste 0 -- -- 80
2021-01-19 22:00:00 12.6 5 Sudoeste 26 Sur 0 -- -- 83
2021-01-19 21:00:00 12.7 5 Sudoeste 23 Sur 0 -- -- 80
2021-01-19 20:00:00 13.2 8 Sudoeste 33 Sudoeste 0 -- -- 77
2021-01-19 19:00:00 13.3 10 Sudoeste 40 Sudoeste 0 -- -- 75
2021-01-19 18:00:00 13.4 11 Sudoeste 35 Sur 0 -- -- 74
2021-01-19 17:00:00 14 18 Sur 38 Sur 0 -- -- 71
2021-01-19 16:00:00 14.6 18 Sudoeste 41 Sur 0 -- -- 68
2021-01-19 15:00:00 14.8 26 Sudoeste 41 Sudoeste 0 -- -- 69
2021-01-19 14:00:00 14.7 13 Sudoeste 43 Sur 0 -- -- 70
2021-01-19 13:00:00 14.9 18 Sudoeste 38 Sur 0 -- -- 70
2021-01-19 12:00:00 16.1 15 Sur 27 Sur 0 -- -- 69
2021-01-19 11:00:00 16 13 Sur 21 Sur 0 -- -- 70
2021-01-19 10:00:00 14.9 2 Sur 11 Sudoeste 0 -- -- 72
2021-01-19 09:00:00 11 7 Sudoeste 14 Sudoeste 0 -- -- 82
2021-01-19 08:00:00 10.4 4 Sudoeste 13 Sudoeste 0 -- -- 84
2021-01-19 07:00:00 10.2 4 Sur 13 Sudoeste 0 -- -- 85
2021-01-19 06:00:00 10 0 Calma 10 Sur 0 -- -- 85
2021-01-19 05:00:00 10.1 5 Sur 14 Sudoeste 0 -- -- 85
2021-01-19 04:00:00 9.6 5 Sudoeste 14 Sudoeste 0 -- -- 83
2021-01-19 03:00:00 9.6 3 Sudoeste 13 Sudoeste 0 -- -- 82
2021-01-19 02:00:00 10 3 Sudoeste 13 Sur 0 -- -- 81
2021-01-19 01:00:00 9.8 3 Sudoeste 14 Sur 0 -- -- 80
2021-01-19 00:00:00 9.9 4 Sudoeste 17 Sudoeste 0 -- -- 80
2021-01-18 23:00:00 10.2 5 Sudoeste 13 Sudoeste 0 -- -- 78
2021-01-18 22:00:00 10.8 2 Oeste 10 Sur 0 -- -- 78
2021-01-18 21:00:00 11.3 0 Calma 13 Oeste 0 -- -- 77
2021-01-18 20:00:00 11.7 2 Sur 6 Sur 0 -- -- 74
2021-01-18 19:00:00 11.8 3 Sur 9 Sudeste 0 -- -- 72
2021-01-18 18:00:00 11.7 2 Nordeste 10 Nordeste 0 -- -- 71
2021-01-18 17:00:00 12 5 Nordeste 13 Nordeste 0 -- -- 72
2021-01-18 16:00:00 12.1 9 Norte 18 Noroeste 0 -- -- 72
2021-01-18 15:00:00 12.9 10 Norte 24 Norte 0 -- -- 68
2021-01-18 14:00:00 12.7 14 Norte 24 Norte 0 -- -- 68
2021-01-18 13:00:00 13 17 Norte 26 Norte 0 -- -- 63
2021-01-18 12:00:00 12.6 19 Norte 30 Norte 0 -- -- 63
2021-01-18 11:00:00 12.7 22 Norte 32 Nordeste 0 -- -- 61
2021-01-18 10:00:00 12.7 24 Norte 31 Norte 0 -- -- 65
2021-01-18 09:00:00 12.3 24 Norte 33 Norte 0 -- -- 66
2021-01-18 08:00:00 11.3 26 Norte 36 Norte 0 -- -- 70
2021-01-18 07:00:00 11.3 31 Norte 40 Norte 0 -- -- 65
2021-01-18 06:00:00 11.1 30 Norte 37 Norte 0 -- -- 69
2021-01-18 05:00:00 11 27 Norte 36 Nordeste 0 -- -- 71
2021-01-18 04:00:00 11.1 26 Norte 37 Norte 0 -- -- 72
2021-01-18 03:00:00 11.2 30 Norte 36 Norte 0 -- -- 69
2021-01-18 02:00:00 11.4 28 Norte 38 Norte 0 -- -- 68
2021-01-18 01:00:00 11.7 28 Norte 42 Norte 0 -- -- 71
2021-01-18 00:00:00 12.4 34 Norte 55 Norte 0 -- -- 64
2021-01-17 23:00:00 13.3 36 Norte 56 Nordeste 0 -- -- 74
2021-01-17 22:00:00 13.7 34 Nordeste 43 Nordeste 0 -- -- 77
2021-01-17 21:00:00 14.3 29 Norte 40 Norte 0 -- -- 76
2021-01-17 20:00:00 14.6 17 Norte 25 Norte 0 -- -- 71
2021-01-17 19:00:00 14.8 13 Noroeste 24 Noroeste 0 -- -- 59
2021-01-17 18:00:00 15.4 13 Noroeste 21 Noroeste 0 -- -- 51
2021-01-17 17:00:00 17.2 8 Sur 20 Sudeste 0 -- -- 64
2021-01-17 16:00:00 19.5 7 Sur 28 Oeste 0 -- -- 53
2021-01-17 15:00:00 20.8 7 Noroeste 29 Oeste 0 -- -- 33
2021-01-17 14:00:00 20.5 15 Noroeste 29 Norte 0 -- -- 33
2021-01-17 13:00:00 19.5 6 Nordeste 15 Oeste 0 -- -- 40
2021-01-17 12:00:00 19.8 9 Oeste 21 Oeste 0 -- -- 34
2021-01-17 11:00:00 17.1 8 Sudoeste 22 Sur 0 -- -- 49
2021-01-17 10:00:00 15 10 Sudoeste 21 Sudoeste 0 -- -- 61
2021-01-17 09:00:00 12.9 9 Sudoeste 25 Oeste 0 -- -- 74
2021-01-17 08:00:00 10.7 8 Sudoeste 23 Sudoeste 0 -- -- 84
2021-01-17 07:00:00 10.8 9 Sudoeste 27 Sudoeste 0 -- -- 81
2021-01-17 06:00:00 10.7 10 Sudoeste 28 Sudoeste 0 -- -- 80
2021-01-17 05:00:00 10.3 8 Sudoeste 27 Oeste 0 -- -- 77
2021-01-17 04:00:00 10.2 8 Oeste 24 Oeste 0 -- -- 80
2021-01-17 03:00:00 9.5 9 Sudoeste 26 Oeste 0 -- -- 74
2021-01-17 02:00:00 9.7 12 Oeste 23 Sudoeste 0 -- -- 69
2021-01-17 01:00:00 9.5 11 Sudoeste 19 Sur 0 -- -- 72
2021-01-17 00:00:00 9.7 9 Sudoeste 19 Oeste 0 -- -- 71
2021-01-16 23:00:00 10.5 4 Sudoeste 15 Oeste 0 -- -- 74
2021-01-16 22:00:00 10.5 11 Noroeste 15 Noroeste 0 -- -- 75
2021-01-16 21:00:00 10.4 8 Oeste 13 Oeste 0 -- -- 76
2021-01-16 20:00:00 10.7 7 Oeste 11 Oeste 0 -- -- 70
2021-01-16 19:00:00 11.1 7 Oeste 12 Noroeste 0 -- -- 67
2021-01-16 18:00:00 11.4 5 Sudoeste 13 Oeste 0 -- -- 70
2021-01-16 17:00:00 13 6 Noroeste 22 Noroeste 0 -- -- 64
2021-01-16 16:00:00 14.2 17 Noroeste 33 Noroeste 0 -- -- 60
2021-01-16 15:00:00 13.9 24 Norte 37 Norte 0 -- -- 59
2021-01-16 14:00:00 14.4 29 Norte 47 Norte 0 -- -- 54
2021-01-16 13:00:00 14 41 Norte 57 Norte 0 -- -- 53
2021-01-16 12:00:00 13.3 49 Norte 66 Norte 0 -- -- 51
2021-01-16 11:00:00 12.8 49 Norte 67 Norte 0 -- -- 53
2021-01-16 10:00:00 12 55 Norte 72 Norte 0 -- -- 54
2021-01-16 09:00:00 11.5 57 Norte 75 Norte 0 -- -- 58
2021-01-16 08:00:00 10.9 60 Norte 69 Norte 0.2 -- -- 65
2021-01-16 07:00:00 11 53 Norte 67 Norte 0 -- -- 73
2021-01-16 06:00:00 10.8 47 Norte 58 Nordeste 0 -- -- 76
2021-01-16 05:00:00 11.3 33 Norte 51 Nordeste 0 -- -- 79
2021-01-16 04:00:00 11.6 35 Norte 51 Nordeste 0 -- -- 72
2021-01-16 03:00:00 11.4 37 Norte 49 Nordeste 0 -- -- 75
2021-01-16 02:00:00 11.2 40 Nordeste 51 Nordeste 0 -- -- 76
2021-01-16 01:00:00 11.7 38 Nordeste 50 Nordeste 0 -- -- 71
2021-01-16 00:00:00 11.7 36 Nordeste 43 Nordeste 0 -- -- 72
2021-01-15 23:00:00 11.9 28 Nordeste 34 Nordeste 0 -- -- 75
2021-01-15 22:00:00 11.9 16 Norte 26 Norte 0 -- -- 77
2021-01-15 21:00:00 11.4 11 Noroeste 19 Noroeste 0 -- -- 71
2021-01-15 20:00:00 11.6 9 Noroeste 18 Norte 0 -- -- 70
2021-01-15 19:00:00 11.9 8 Noroeste 14 Noroeste 0 -- -- 69
2021-01-15 18:00:00 12.6 3 Oeste 12 Sudoeste 0 -- -- 75
2021-01-15 17:00:00 13.2 11 Sur 17 Sudeste 0 -- -- 72
2021-01-15 16:00:00 13.9 11 Sudeste 15 Sudeste 0 -- -- 69
2021-01-15 15:00:00 14.2 8 Sudeste 16 Sur 0 -- -- 67
2021-01-15 14:00:00 15 0 Calma 22 Norte 0 -- -- 65
2021-01-15 13:00:00 14.5 16 Noroeste 24 Norte 0 -- -- 64
2021-01-15 12:00:00 15.4 16 Norte 26 Norte 0 -- -- 64
2021-01-15 11:00:00 14.7 14 Noroeste 26 Noroeste 0 -- -- 64
2021-01-15 10:00:00 14.8 4 Noroeste 13 Oeste 0 -- -- 63
2021-01-15 09:00:00 12.1 2 Sur 19 Oeste 0 -- -- 65
2021-01-15 08:00:00 9.8 11 Oeste 18 Oeste 0 -- -- 72
2021-01-15 07:00:00 10.3 10 Noroeste 20 Oeste 0 -- -- 66
2021-01-15 06:00:00 9.9 15 Oeste 21 Oeste 0 -- -- 77
2021-01-15 05:00:00 9.6 7 Sudoeste 18 Oeste 0 -- -- 76
2021-01-15 04:00:00 9.5 7 Sudoeste 14 Oeste 0 -- -- 74
2021-01-15 03:00:00 9.1 8 Oeste 14 Oeste 0 -- -- 73
2021-01-15 02:00:00 9.6 8 Oeste 16 Oeste 0 -- -- 74
2021-01-15 01:00:00 9.4 11 Oeste 18 Oeste 0 -- -- 77
2021-01-15 00:00:00 9.7 11 Oeste 24 Oeste 0 -- -- 76
2021-01-14 23:00:00 10.3 5 Noroeste 25 Norte 0 -- -- 73
2021-01-14 22:00:00 10.9 12 Noroeste 29 Noroeste 0 -- -- 73
2021-01-14 21:00:00 11.2 17 Noroeste 29 Noroeste 0 -- -- 70
2021-01-14 20:00:00 11.5 14 Noroeste 25 Norte 0 -- -- 74
2021-01-14 19:00:00 12.2 8 Norte 12 Norte 0 -- -- 74
2021-01-14 18:00:00 12.7 2 Noroeste 14 Norte 0 -- -- 74
2021-01-14 17:00:00 13 8 Noroeste 25 Sur 0 -- -- 72
2021-01-14 16:00:00 13.4 14 Sudoeste 27 Sur 0 -- -- 71
2021-01-14 15:00:00 16.1 17 Sur 23 Sur 0 -- -- 60
2021-01-14 14:00:00 15.5 14 Noroeste 24 Noroeste 0 -- -- 63
2021-01-14 13:00:00 15.5 18 Noroeste 32 Norte 0 -- -- 61
2021-01-14 12:00:00 14.8 19 Noroeste 29 Noroeste 0 -- -- 61
2021-01-14 11:00:00 14.2 17 Noroeste 31 Noroeste 0 -- -- 64
2021-01-14 10:00:00 14 12 Noroeste 21 Norte 0 -- -- 67
2021-01-14 09:00:00 11.6 6 Oeste 18 Oeste 0 770 -- 73
2021-01-14 08:00:00 9.4 12 Oeste 22 Oeste 0 -- -- 81
2021-01-14 07:00:00 9.3 14 Oeste 22 Noroeste 0 -- -- 81
2021-01-14 06:00:00 9.8 8 Noroeste 20 Noroeste 0 -- -- 81
2021-01-14 05:00:00 9.6 8 Oeste 17 Oeste 0 833.5 -- 78
2021-01-14 04:00:00 10 7 Oeste 19 Noroeste 0 1018.2 -- 78
2021-01-14 03:00:00 10.1 9 Noroeste 18 Noroeste 0 -- -- 78
2021-01-14 02:00:00 10.2 12 Oeste 16 Oeste 0 -- -- 75
2021-01-14 01:00:00 10.6 9 Oeste 11 Oeste 0 -- -- 78
2021-01-14 00:00:00 10.6 8 Oeste 13 Oeste 0 -- -- 76
2021-01-13 23:00:00 10.6 3 Sudoeste 9 Sudoeste 0 -- -- 73
2021-01-13 22:00:00 10.5 0 Calma 6 Oeste 0 -- -- 74
2021-01-13 21:00:00 10.7 4 Oeste 8 Sudoeste 0 -- -- 74
2021-01-13 20:00:00 11 7 Oeste 13 Oeste 0 -- -- 74
2021-01-13 19:00:00 11.2 8 Oeste 13 Oeste 0 -- -- 74
2021-01-13 18:00:00 11.6 8 Oeste 19 Norte 0 -- -- 74
2021-01-13 17:00:00 13.3 4 Oeste 19 Norte 0 -- -- 67
2021-01-13 16:00:00 14.9 10 Noroeste 19 Norte 0 -- -- 61
2021-01-13 15:00:00 13.2 7 Norte 14 Norte 0 -- -- 66
2021-01-13 14:00:00 13 7 Norte 14 Nordeste 0 -- -- 60
2021-01-13 13:00:00 13.9 8 Este 16 Este 0 -- -- 55
2021-01-13 12:00:00 15.9 8 Sur 14 Sur 0 -- -- 48
2021-01-13 11:00:00 14.2 0 Calma 21 Sudoeste 0 -- -- 57
2021-01-13 10:00:00 11.8 8 Sudoeste 23 Sudoeste 0 -- -- 59
2021-01-13 09:00:00 10.6 4 Sudoeste 17 Noroeste 0 -- -- 67
2021-01-13 08:00:00 8.7 10 Noroeste 17 Oeste 0 -- -- 73
2021-01-13 07:00:00 8.5 8 Noroeste 16 Noroeste 0 -- -- 68
2021-01-13 06:00:00 8.4 10 Noroeste 17 Noroeste 0 -- -- 74
2021-01-13 05:00:00 8.2 7 Oeste 18 Oeste 0 -- -- 74
2021-01-13 04:00:00 8.1 10 Oeste 22 Norte 0 -- -- 73
2021-01-13 03:00:00 9 15 Norte 30 Norte 0 -- -- 74
2021-01-13 02:00:00 8.1 8 Oeste 18 Oeste 0 -- -- 74
2021-01-13 01:00:00 8.9 6 Noroeste 28 Norte 0 -- -- 72
2021-01-13 00:00:00 8.1 11 Noroeste 22 Noroeste 0 -- -- 74
2021-01-12 23:00:00 8.5 9 Noroeste 18 Oeste 0 -- -- 70
2021-01-12 22:00:00 8.5 8 Oeste 15 Oeste 0 -- -- 71
2021-01-12 21:00:00 8.7 11 Noroeste 20 Oeste 0 -- -- 72
2021-01-12 20:00:00 9.3 6 Noroeste 19 Noroeste 0 -- -- 71
2021-01-12 19:00:00 10 11 Noroeste 33 Noroeste 0 -- -- 70
2021-01-12 18:00:00 10.6 21 Noroeste 35 Noroeste 0 -- -- 67
2021-01-12 17:00:00 11.4 21 Noroeste 36 Noroeste 0 -- -- 64
2021-01-12 16:00:00 12 24 Noroeste 40 Norte 0 -- -- 62
2021-01-12 15:00:00 12.5 27 Norte 48 Norte 0 -- -- 59
2021-01-12 14:00:00 13.5 25 Norte 37 Norte 0 -- -- 58
2021-01-12 13:00:00 14.8 19 Norte 30 Norte 0 -- -- 47
2021-01-12 12:00:00 13.9 3 Este 12 Norte 0 -- -- 49
2021-01-12 11:00:00 12.9 2 Norte 21 Noroeste 0 1018.3 -- 58
2021-01-12 10:00:00 -- 2 Oeste -- -- -- -- -- --
2021-01-12 09:00:00 8.9 5 Noroeste 21 Oeste 0 1017.1 -- 72
2021-01-12 08:00:00 7.4 12 Noroeste 26 Oeste 0 -- -- 76
2021-01-12 07:00:00 7.6 11 Noroeste 31 Oeste 0 -- -- 77
2021-01-12 06:00:00 7.1 11 Oeste 31 Oeste 0 -- -- 79
2021-01-12 05:00:00 7.2 14 Oeste 29 Oeste 0 -- -- 76
2021-01-12 04:00:00 7.4 13 Noroeste 23 Noroeste 0 -- -- 76
2021-01-12 03:00:00 6.9 10 Oeste 23 Oeste 0 -- -- 77
2021-01-12 02:00:00 7.6 11 Noroeste 27 Noroeste 0 -- -- 74
2021-01-12 01:00:00 7.3 6 Oeste 21 Oeste 0 -- -- 80
2021-01-12 00:00:00 8.2 5 Noroeste 24 Noroeste 0 -- -- 80
2021-01-11 23:00:00 8.3 10 Noroeste 22 Oeste 0 -- -- 87
2021-01-11 22:00:00 8.6 4 Oeste 30 Norte 0.7 -- -- 90
2021-01-11 21:00:00 9.5 10 Noroeste 34 Norte 0 1014.4 -- 75
2021-01-11 20:00:00 9.8 24 Norte 39 Norte 0 -- -- 71
2021-01-11 19:00:00 9.7 28 Norte 44 Norte 0 -- -- 70
2021-01-11 18:00:00 9.6 35 Norte 48 Norte 0 -- -- 73
2021-01-11 17:00:00 9.5 36 Norte 45 Norte 0 -- -- 74
2021-01-11 16:00:00 9.4 37 Norte 48 Norte 0 -- -- 74
2021-01-11 15:00:00 10.1 36 Norte 49 Norte 0 -- -- 70
2021-01-11 14:00:00 10 39 Norte 49 Norte 0 1010.7 -- 74
2021-01-11 13:00:00 10.1 39 Norte 50 Norte 0 -- -- 74
2021-01-11 12:00:00 9.8 42 Norte 57 Norte 0 -- -- 75
2021-01-11 11:00:00 9.6 44 Norte 60 Norte 0 -- -- 77
2021-01-11 10:00:00 9.2 49 Norte 60 Norte 0 -- -- 77
2021-01-11 09:00:00 9.3 53 Norte 63 Norte 0 -- -- 80
2021-01-11 08:00:00 9.4 50 Norte 67 Norte 0 -- -- 83
2021-01-11 07:00:00 9.3 55 Norte 67 Norte 0.1 -- -- 87
2021-01-11 06:00:00 9.2 51 Norte 65 Norte 0.1 -- -- 92
2021-01-11 05:00:00 9.1 54 Norte 66 Norte 0.7 -- -- 94
2021-01-11 04:00:00 9.3 52 Norte 70 Norte 0.1 -- -- 92
2021-01-11 03:00:00 9.6 58 Norte 69 Norte 0 -- -- 89
2021-01-11 02:00:00 9.5 56 Norte 72 Norte 0 -- -- 93
2021-01-11 01:00:00 9.6 59 Norte 74 Norte 0 -- -- 93
2021-01-11 00:00:00 10.1 58 Norte 74 Norte 0.7 -- -- 93
2021-01-10 23:00:00 9.5 54 Norte 73 Norte 6.2 -- -- --
2021-01-10 22:00:00 10.3 51 Norte 79 Norte 3.1 -- -- --
2021-01-10 21:00:00 11.1 55 Norte 71 Norte 1 -- -- 96
2021-01-10 20:00:00 10.9 8 Oeste 12 Oeste 0 -- -- 76
2021-01-10 19:00:00 10.9 3 Sudoeste 7 Sudoeste 0 -- -- 81
2021-01-10 18:00:00 11.6 2 Oeste 14 Sur 0 -- -- 79
2021-01-10 17:00:00 12.4 4 Sudoeste 11 Sur 0 -- -- 75
2021-01-10 16:00:00 12.9 2 Sudoeste 10 Sur 0 -- -- 72
2021-01-10 15:00:00 13.5 4 Sudoeste 19 Oeste 0 -- -- 70
2021-01-10 14:00:00 14.7 7 Sudoeste 24 Sudoeste 0 -- -- 61
2021-01-10 13:00:00 14 3 Sudoeste 23 Sudoeste 0 -- -- 67
2021-01-10 12:00:00 13.6 7 Sudoeste 21 Oeste 0 -- -- 71
2021-01-10 11:00:00 14.1 3 Sudoeste 15 Sudoeste 0 -- -- 73
2021-01-10 10:00:00 11.8 6 Norte 31 Noroeste 0 -- -- 80
2021-01-10 09:00:00 9.8 8 Sudoeste 35 Sur 0 -- -- 85
2021-01-10 08:00:00 8.6 10 Sudoeste 32 Sudoeste 0 -- -- 89
2021-01-10 07:00:00 8.7 4 Sudoeste 19 Sudoeste 0 -- -- 90
2021-01-10 06:00:00 8.8 5 Sudoeste 20 Sudoeste 0 -- -- 90
2021-01-10 05:00:00 9.1 8 Sudoeste 25 Sudoeste 0 999 -- 86
2021-01-10 04:00:00 8.8 6 Sudoeste 18 Sudoeste 0 999.4 -- 91
2021-01-10 03:00:00 9.1 7 Oeste 14 Oeste 0 999.8 -- 90
2021-01-10 02:00:00 9.8 4 Sudoeste 13 Sur 0 935.6 -- 86
2021-01-10 01:00:00 10.2 5 Oeste 13 Sur 0 -- -- 83
2021-01-10 00:00:00 10.9 2 Oeste 24 Oeste 0 999 -- 85
2021-01-09 23:00:00 11.6 10 Sudoeste 28 Sudoeste 0 -- -- 83
2021-01-09 22:00:00 11.9 11 Sudoeste 33 Sudoeste 0.1 -- -- 83
2021-01-09 21:00:00 12.3 8 Sudoeste 25 Sudoeste 0 -- -- 91
2021-01-09 20:00:00 12.7 7 Sudoeste 27 Sudoeste 0 -- -- 92
2021-01-09 19:00:00 13.3 5 Sudoeste 18 Sur 0 -- -- 93
2021-01-09 18:00:00 13.5 5 Sudoeste 16 Sudoeste 0 995.5 -- 94
2021-01-09 17:00:00 14.4 5 Sudoeste 19 Sudeste 0 -- -- 96
2021-01-09 16:00:00 15.2 17 Sudeste 26 Sudeste 0 -- -- 99
2021-01-09 15:00:00 15 25 Sudeste 43 Sudeste 0 -- -- 99
2021-01-09 14:00:00 14.4 25 Sudeste 49 Este 0 -- -- 99
2021-01-09 13:00:00 14 35 Este 48 Este 0.1 -- -- --
2021-01-09 12:00:00 13.7 39 Este 49 Este 0 -- -- --
2021-01-09 11:00:00 13.2 42 Este 49 Este 0 -- -- --
2021-01-09 10:00:00 13.1 36 Nordeste 56 Nordeste 0 -- -- 99
2021-01-09 09:00:00 11.8 41 Nordeste 51 Nordeste 0.9 -- -- --
2021-01-09 08:00:00 11.6 22 Nordeste 39 Nordeste 0 -- -- 98
2021-01-09 07:00:00 11.3 27 Nordeste 43 Norte 0.2 -- -- --
2021-01-09 06:00:00 10.9 31 Nordeste 38 Norte 0.3 -- -- --
2021-01-09 05:00:00 10.7 26 Norte 40 Norte 0.4 -- -- --
2021-01-09 04:00:00 10.6 27 Nordeste 39 Nordeste 0.8 -- -- --
2021-01-09 03:00:00 10.3 32 Nordeste 46 Nordeste 0 -- -- 95
2021-01-09 02:00:00 10.3 36 Nordeste 54 Nordeste 0.1 -- -- 92
2021-01-09 01:00:00 9.9 28 Nordeste 42 Nordeste 0 -- -- 99
2021-01-09 00:00:00 10.1 39 Nordeste 52 Norte 0 -- -- 89
2021-01-08 23:00:00 9.2 38 Nordeste 47 Nordeste 0.1 -- -- 91
2021-01-08 22:00:00 8.5 38 Nordeste 53 Nordeste 0.8 -- -- 95
2021-01-08 21:00:00 9.4 42 Nordeste 53 Nordeste 0.3 -- -- 90
2021-01-08 20:00:00 9 45 Nordeste 55 Norte 0.2 -- -- 86
2021-01-08 19:00:00 9 46 Nordeste 58 Norte 0.3 -- -- 81
2021-01-08 18:00:00 8.4 45 Nordeste 60 Norte 0.3 -- -- 95
2021-01-08 17:00:00 8.1 48 Norte 58 Norte 1.2 -- -- 98
2021-01-08 16:00:00 8.9 47 Norte 59 Norte 0 -- -- 85
2021-01-08 15:00:00 9.7 45 Norte 59 Norte 0 -- -- 77
2021-01-08 14:00:00 10.4 44 Norte 56 Norte 0 -- -- 76
2021-01-08 13:00:00 10.3 43 Norte 56 Norte 0 -- -- 73
2021-01-08 12:00:00 9.9 43 Norte 57 Norte 0 -- -- 73
2021-01-08 11:00:00 10 42 Norte 58 Norte 0 -- -- 73
2021-01-08 10:00:00 9.6 44 Norte 56 Norte 0.1 -- -- 70
2021-01-08 09:00:00 9.4 43 Norte 55 Norte 0 -- -- 76
2021-01-08 08:00:00 8.7 41 Norte 55 Norte 0.1 -- -- 82
2021-01-08 07:00:00 8.3 41 Norte 57 Norte 0.8 -- -- 85
2021-01-08 06:00:00 8 48 Norte 58 Norte 1.1 -- -- 86
2021-01-08 05:00:00 7.5 48 Norte 67 Norte 1.4 -- -- 97
2021-01-08 04:00:00 8.3 46 Norte 58 Norte 1.2 -- -- 85
2021-01-08 03:00:00 7.7 45 Norte 62 Norte 0.2 -- -- 83
2021-01-08 02:00:00 9.1 44 Norte 56 Norte 0 -- -- 69
2021-01-08 01:00:00 8.7 45 Norte 60 Norte 0.2 -- -- 75
2021-01-08 00:00:00 8.9 44 Norte 62 Norte 0 -- -- 81
2021-01-07 23:00:00 8.7 44 Norte 57 Norte 0.2 -- -- 76
2021-01-07 22:00:00 8.9 48 Norte 68 Norte 0 -- -- 80
2021-01-07 21:00:00 9.6 46 Nordeste 62 Nordeste 0.1 -- -- 79
2021-01-07 20:00:00 8.5 48 Nordeste 59 Nordeste 0.4 -- -- 81
2021-01-07 19:00:00 9 43 Nordeste 60 Nordeste 0.1 -- -- 85
2021-01-07 18:00:00 9 44 Nordeste 56 Nordeste 0.1 -- -- 82
2021-01-07 17:00:00 9.1 42 Nordeste 55 Nordeste 0.2 1002.7 -- 85
2021-01-07 16:00:00 8.8 42 Nordeste 56 Nordeste 0 1002.4 -- 90
2021-01-07 15:00:00 9.4 41 Nordeste 50 Nordeste 0.1 1001.5 -- 85
2021-01-07 14:00:00 9.7 36 Nordeste 45 Nordeste 0.1 1002.2 -- 83
2021-01-07 13:00:00 9.8 33 Nordeste 45 Nordeste 0 1002.7 -- 79
2021-01-07 12:00:00 9.7 33 Nordeste 41 Nordeste 0 1003.9 -- 79
2021-01-07 11:00:00 9.4 32 Nordeste 40 Nordeste 0 1004.5 -- 78
2021-01-07 10:00:00 8.7 29 Nordeste 39 Nordeste 0.1 1004.9 -- 78
2021-01-07 09:00:00 8.1 23 Nordeste 33 Nordeste 0.1 1004.9 -- 85
2021-01-07 08:00:00 8.1 22 Nordeste 32 Norte 0.5 1004.3 -- 84
2021-01-07 07:00:00 8.7 19 Nordeste 37 Nordeste 0.3 1004.3 -- 82
2021-01-07 06:00:00 8.6 24 Nordeste 44 Nordeste 0.1 1004.6 -- 79
2021-01-07 05:00:00 10 21 Nordeste 36 Nordeste 0 1004.8 -- 56
2021-01-07 04:00:00 10.6 19 Este 29 Este 0 1005.8 -- 61
2021-01-07 03:00:00 10.5 20 Este 30 Este 0 1006.1 -- 67
2021-01-07 02:00:00 10.4 14 Este 22 Este 0 1006.6 -- 61
2021-01-07 01:00:00 9.9 10 Nordeste 20 Nordeste 0 1007.3 -- 66
2021-01-07 00:00:00 9.3 8 Norte 15 Norte 0 1007.8 -- 73
2021-01-06 23:00:00 9 11 Noroeste 14 Norte 0 1008.3 -- 70
2021-01-06 22:00:00 8.3 8 Noroeste 10 Noroeste 0 1008.6 -- 71
2021-01-06 21:00:00 8.6 6 Noroeste 10 Norte 0 1008.5 -- 72
2021-01-06 20:00:00 8.6 6 Noroeste 10 Noroeste 0 1008.2 -- 72
2021-01-06 19:00:00 9.1 7 Noroeste 18 Norte 0 1007.6 -- 71
2021-01-06 18:00:00 9.6 15 Norte 26 Norte 0 1007.1 -- 73
2021-01-06 17:00:00 10.6 11 Norte 19 Norte 0 1007 -- 65
2021-01-06 16:00:00 10.3 13 Norte 26 Norte 0 1006.9 -- 71
2021-01-06 15:00:00 11.2 13 Norte 19 Norte 0 1006.3 -- 64
2021-01-06 14:00:00 11.1 10 Norte 23 Norte 0 1006.3 -- 63
2021-01-06 13:00:00 10.2 18 Norte 31 Norte 0 1006.2 -- 70
2021-01-06 12:00:00 12 12 Norte 20 Norte 0 1006.8 -- 52
2021-01-06 11:00:00 12.7 3 Norte 14 Oeste 0 1007 -- 49
2021-01-06 10:00:00 12.7 5 Noroeste 8 Noroeste 0 1006.9 -- 49
2021-01-06 09:00:00 9.7 2 Oeste 13 Oeste 0 1006 -- 51
2021-01-06 08:00:00 7.4 3 Oeste 8 Oeste 0 1005.5 -- 58
2021-01-06 07:00:00 7.6 7 Oeste 12 Sudoeste 0 1005 -- 58
2021-01-06 06:00:00 7.6 10 Sudoeste 15 Oeste 0 1004.8 -- 58
2021-01-06 05:00:00 7.4 10 Oeste 16 Oeste 0 1005.1 -- 61
2021-01-06 04:00:00 7.3 10 Oeste 16 Sudoeste 0 1005.4 -- 59
2021-01-06 03:00:00 7.2 10 Oeste 15 Oeste 0 1005.4 -- 59
2021-01-06 02:00:00 7.1 9 Oeste 17 Sudoeste 0 1005 -- 58
2021-01-06 01:00:00 7 11 Oeste 18 Oeste 0 1005 -- 60
2021-01-06 00:00:00 6.8 13 Oeste 15 Oeste 0 1005.1 -- 64
2021-01-05 23:00:00 6.7 9 Oeste 15 Oeste 0 1005.3 -- 61
2021-01-05 22:00:00 6.8 12 Oeste 18 Oeste 0 1005.2 -- 63
2021-01-05 21:00:00 7 9 Oeste 13 Oeste 0 1005 -- 65
2021-01-05 20:00:00 7 5 Oeste 15 Oeste 0 1004.8 -- 64
2021-01-05 19:00:00 7.2 10 Noroeste 18 Noroeste 0 1004.4 -- 65
2021-01-05 18:00:00 8.4 6 Noroeste 29 Norte 0 1004 -- 60
2021-01-05 17:00:00 9.6 8 Noroeste 27 Noroeste 0 1003.5 -- 59
2021-01-05 16:00:00 10.2 15 Norte 31 Norte 0 1003.2 -- 58
2021-01-05 15:00:00 10.1 15 Norte 34 Norte 0 1002.7 -- 59
2021-01-05 14:00:00 11.2 17 Norte 38 Noroeste 0 1002.5 -- 55
2021-01-05 13:00:00 10.2 14 Norte 30 Noroeste 0 1003 -- 55
2021-01-05 12:00:00 11.2 10 Norte 23 Norte 0 1003.5 -- 54
2021-01-05 11:00:00 11.4 4 Sudoeste 15 Sudoeste 0 1004 -- 66
2021-01-05 10:00:00 9.5 5 Sudoeste 17 Sudoeste 0 1003.8 -- 73
2021-01-05 09:00:00 6.6 4 Sudoeste 21 Sudoeste 0 1003.3 -- 82
2021-01-05 08:00:00 5.4 8 Sudoeste 29 Oeste 0.8 1002.7 -- 90
2021-01-05 07:00:00 6.1 12 Oeste 39 Oeste 0.7 1002.7 -- 82
2021-01-05 06:00:00 6.5 6 Sudoeste 16 Noroeste 0 1001.5 -- 65
2021-01-05 05:00:00 6.9 10 Noroeste 17 Noroeste 0 1001.9 -- 63
2021-01-05 04:00:00 6.2 11 Noroeste 19 Noroeste 0 1002 -- 71
2021-01-05 03:00:00 6.5 12 Oeste 22 Oeste 0 1001.8 -- 78
2021-01-05 02:00:00 7.6 11 Noroeste 31 Oeste 0 1001.8 -- 75
2021-01-05 01:00:00 8.2 12 Noroeste 31 Noroeste 0 1002.2 -- 64
2021-01-05 00:00:00 7.6 12 Oeste 18 Oeste 0 1002.1 -- 60
2021-01-04 23:00:00 7.2 12 Oeste 18 Oeste 0 1002.4 -- 70
2021-01-04 22:00:00 7.6 12 Oeste 18 Oeste 0 1002.3 -- 71
2021-01-04 21:00:00 7.2 15 Oeste 23 Oeste 0 1002.1 -- 72
2021-01-04 20:00:00 7.4 11 Noroeste 19 Oeste 0 1002 -- 70
2021-01-04 19:00:00 7 9 Oeste 17 Oeste 0 1002.2 -- 81
2021-01-04 18:00:00 7.2 8 Oeste 19 Oeste 0 1001.8 -- 84
2021-01-04 17:00:00 7.7 9 Oeste 51 Oeste 0.8 1001.3 -- 80
2021-01-04 16:00:00 9.7 18 Norte 30 Norte 0 1001.1 -- 74
2021-01-04 15:00:00 10.4 21 Norte 33 Norte 0 1000.8 -- 71
2021-01-04 14:00:00 13 20 Norte 28 Noroeste 0 1001 -- 63
2021-01-04 13:00:00 12.8 15 Norte 21 Norte 0 1001.7 -- 64
2021-01-04 12:00:00 11.7 14 Norte 22 Norte 0 1002.7 -- 63
2021-01-04 11:00:00 14.3 5 Sur 12 Sudoeste 0 1003.5 -- 52
2021-01-04 10:00:00 12.6 2 Sudoeste 10 Noroeste 0 1003.9 -- 59
2021-01-04 09:00:00 9.2 7 Oeste 18 Noroeste 0 1003.7 -- 67
2021-01-04 08:00:00 8.1 11 Noroeste 24 Oeste 0 1003.5 -- 73
2021-01-04 07:00:00 7.9 13 Oeste 30 Oeste 0 1003.6 -- 74
2021-01-04 06:00:00 8.5 13 Oeste 18 Oeste 0 1003.2 -- 62
2021-01-04 05:00:00 8.3 11 Oeste 18 Oeste 0 1003.2 -- 64
2021-01-04 04:00:00 8.1 6 Sudoeste 18 Oeste 0 1003.6 -- 66
2021-01-04 03:00:00 7.6 6 Sudoeste 24 Norte 0 1003.8 -- 70
2021-01-04 02:00:00 7.5 4 Sudoeste 10 Oeste 0 1003.5 -- 64
2021-01-04 01:00:00 7.2 6 Noroeste 18 Noroeste 0 1004.3 -- 68
2021-01-04 00:00:00 7.5 5 Sudoeste 20 Oeste 0 1004.4 -- 71
2021-01-03 23:00:00 7.3 11 Oeste 26 Oeste 0 1005 -- 78
2021-01-03 22:00:00 6.8 8 Sudoeste 16 Sudoeste 0 1004.7 -- 65
2021-01-03 21:00:00 6.9 7 Sudoeste 15 Sudoeste 0 1004.8 -- 69
2021-01-03 20:00:00 7.5 0 Calma 7 Sur 0 1004.7 -- 76
2021-01-03 19:00:00 7.6 2 Sudoeste 9 Oeste 0 1004.5 -- 76
2021-01-03 18:00:00 7.8 5 Oeste 6 Oeste 0 1004.1 -- 78
2021-01-03 17:00:00 8.8 0 Calma 8 Nordeste 0 1004.2 -- 78
2021-01-03 16:00:00 9.3 0 Calma 13 Sur 0 1004.2 -- 82
2021-01-03 15:00:00 9 5 Sur 14 Sudeste 0 1003.8 -- 77
2021-01-03 14:00:00 8.6 8 Sudeste 21 Nordeste 0 1003.8 -- 79
2021-01-03 13:00:00 7.2 14 Norte 28 Norte 3.1 1004.2 -- 90
2021-01-03 12:00:00 7.1 6 Este 26 Este 5.6 1004.5 -- 90
2021-01-03 11:00:00 7.8 16 Nordeste 25 Nordeste 0 1004.4 -- 81
2021-01-03 10:00:00 7.6 13 Nordeste 37 Nordeste 0 1004 -- 81
2021-01-03 09:00:00 6.4 32 Nordeste 39 Norte 0.1 1002.7 -- 90
2021-01-03 08:00:00 6.2 19 Noroeste 40 Norte 1.9 1002.6 -- 90
2021-01-03 07:00:00 5.1 24 Norte 39 Norte 3.5 1002.4 -- 96
2021-01-03 06:00:00 5.2 13 Noroeste 33 Nordeste 0.3 1002.1 -- 91
2021-01-03 05:00:00 6.7 24 Nordeste 39 Nordeste 0 1001.5 -- 83
2021-01-03 04:00:00 8 20 Nordeste 30 Nordeste 0 1001.3 -- 76
2021-01-03 03:00:00 7.9 15 Nordeste 30 Nordeste 0 1001.2 -- 72
2021-01-03 02:00:00 7.1 28 Nordeste 42 Nordeste 0 1000.8 -- 80
2021-01-03 01:00:00 7.4 26 Norte 34 Norte 0 1001 -- 85
2021-01-03 00:00:00 7.5 4 Sudoeste 12 Sudoeste 0 1001 -- 67
2021-01-02 23:00:00 7.3 3 Sudoeste 10 Sudoeste 0 1000.9 -- 69
2021-01-02 22:00:00 6.5 4 Sudoeste 10 Sudoeste 0 1000.7 -- 71
2021-01-02 21:00:00 6.7 6 Oeste 16 Oeste 0 1000.6 -- 68
2021-01-02 20:00:00 6.5 6 Oeste 17 Sudoeste 0 1000.5 -- 74
2021-01-02 19:00:00 6.3 8 Sudoeste 21 Sudoeste 0 1000.4 -- 71
2021-01-02 18:00:00 7.1 8 Oeste 26 Oeste 0 999.9 -- 64
2021-01-02 17:00:00 8.6 10 Oeste 30 Oeste 0 999.7 -- 66
2021-01-02 16:00:00 12.1 6 Oeste 19 Oeste 0 999.1 -- 55
2021-01-02 15:00:00 12.2 4 Oeste 28 Sudoeste 0 998.7 -- 55
2021-01-02 14:00:00 12.2 8 Oeste 31 Oeste 0.2 998.9 -- 62